DL1MX-13 Weather Reports


time (UTC)temp
C
wind
direction
speed
KPH
gust
KPH
rain 1hr
cm
rain 24hr
cm
rain mn
cm
humidity
%
barometer
mb
20260506090002 10 220 6.4 0.0 0.00 0.00 0.00 91 1005.6
20260506085901 10 220 6.4 0.0 0.00 0.00 0.00 91 1005.5
20260506085802 10 217 0.0 0.0 0.00 0.00 0.00 91 1005.6
20260506085702 10 217 0.0 0.0 0.00 0.00 0.00 91 1005.5
20260506085602 10 235 8.0 0.0 0.00 0.00 0.00 91 1005.5
20260506085502 10 235 8.0 0.0 0.00 0.00 0.00 91 1005.6
20260506085401 10 222 4.8 0.0 0.00 0.00 0.00 91 1005.6
20260506085302 10 222 4.8 0.0 0.00 0.00 0.00 91 1005.6
20260506085201 10 222 4.8 0.0 0.00 0.00 0.00 91 1005.6
20260506085102 10 225 6.4 0.0 0.00 0.00 0.00 91 1005.6
20260506085001 10 225 6.4 0.0 0.00 0.00 0.00 91 1005.5
20260506084902 10 207 6.4 0.0 0.00 0.00 0.00 91 1005.5
20260506084801 10 207 6.4 0.0 0.00 0.00 0.00 91 1005.5
20260506084702 10 207 6.4 0.0 0.00 0.00 0.00 91 1005.5
20260506084602 10 227 0.0 0.0 0.00 0.00 0.00 91 1005.5
20260506084502 10 227 0.0 0.0 0.00 0.00 0.00 91 1005.5
20260506084402 10 227 0.0 0.0 0.00 0.00 0.00 91 1005.5
20260506084301 10 227 0.0 0.0 0.00 0.00 0.00 91 1005.4
20260506084202 10 217 6.4 0.0 0.00 0.00 0.00 91 1005.4
20260506084101 10 217 6.4 0.0 0.00 0.00 0.00 91 1005.4
20260506084002 10 217 6.4 0.0 0.00 0.00 0.00 91 1005.5
20260506083901 10 222 0.0 0.0 0.00 0.00 0.00 91 1005.4
20260506083802 10 222 0.0 0.0 0.00 0.00 0.00 91 1005.4
20260506083702 10 222 0.0 0.0 0.00 0.00 0.00 91 1005.4
20260506083601 10 222 0.0 0.0 0.00 0.00 0.00 91 1005.5
20260506083502 10 222 0.0 0.0 0.00 0.00 0.00 91 1005.5
20260506083401 10 222 6.4 0.0 0.00 0.00 0.00 91 1005.5
20260506083302 10 222 6.4 0.0 0.00 0.00 0.00 91 1005.4
20260506083201 10 210 9.7 0.0 0.00 0.00 0.00 91 1005.4
20260506083102 10 205 4.8 0.0 0.00 0.00 0.00 91 1005.4
20260506083002 10 205 4.8 0.0 0.00 0.00 0.00 91 1005.4
20260506082901 10 217 6.4 0.0 0.00 0.00 0.00 91 1005.4
20260506082802 10 217 6.4 0.0 0.00 0.00 0.00 91 1005.4
20260506082701 10 217 6.4 0.0 0.00 0.00 0.00 91 1005.4
20260506082602 10 210 6.4 0.0 0.00 0.00 0.00 91 1005.4
20260506082501 10 210 6.4 0.0 0.00 0.00 0.00 91 1005.3
20260506082402 10 210 4.8 0.0 0.00 0.00 0.00 91 1005.3
20260506082304 10 210 4.8 0.0 0.00 0.00 0.00 91 1005.3
20260506082202 10 220 0.0 0.0 0.00 0.00 0.00 91 1005.4
20260506082102 10 220 0.0 0.0 0.00 0.00 0.00 91 1005.3
20260506082002 10 220 0.0 0.0 0.00 0.00 0.00 91 1005.3
20260506081902 10 215 0.0 0.0 0.00 0.00 0.00 91 1005.3
20260506081801 10 215 0.0 0.0 0.00 0.00 0.00 91 1005.3
20260506081702 10 215 0.0 0.0 0.00 0.00 0.00 91 1005.3
20260506081601 10 205 4.8 0.0 0.00 0.00 0.00 91 1005.3
20260506081502 10 205 4.8 0.0 0.00 0.00 0.00 91 1005.3
20260506081401 10 205 4.8 0.0 0.00 0.00 0.00 91 1005.3
20260506081302 10 207 6.4 0.0 0.00 0.00 0.00 91 1005.3
20260506081202 10 207 6.4 0.0 0.00 0.00 0.00 91 1005.3
20260506081102 10 190 9.7 0.0 0.00 0.00 0.00 91 1005.1
20260506081002 10 190 9.7 0.0 0.00 0.00 0.00 91 1005.1
20260506080901 10 190 6.4 0.0 0.00 0.00 0.00 91 1005.1
20260506080802 10 190 6.4 0.0 0.00 0.00 0.00 91 1005.3
20260506080701 10 190 6.4 0.0 0.00 0.00 0.00 91 1005.3
20260506080603 10 190 6.4 0.0 0.00 0.00 0.00 91 1005.3
20260506080502 10 190 6.4 0.0 0.00 0.00 0.00 91 1005.3
20260506080402 10 190 6.4 0.0 0.00 0.00 0.00 91 1005.1
20260506080302 10 200 4.8 0.0 0.00 0.00 0.00 91 1005.1
20260506080202 10 212 0.0 0.0 0.00 0.00 0.00 91 1005.1
20260506073501 9 202 0.0 0.0 0.00 0.00 0.00 92 1005.0
20260506073402 9 202 0.0 0.0 0.00 0.00 0.00 92 1005.0
20260506073302 9 202 0.0 0.0 0.00 0.00 0.00 92 1005.0
20260506073202 9 202 0.0 0.0 0.00 0.00 0.00 92 1005.0
20260506073102 9 202 0.0 0.0 0.00 0.00 0.00 92 1005.1
20260506073002 9 207 0.0 0.0 0.00 0.00 0.00 92 1005.1
20260506072901 9 207 0.0 0.0 0.00 0.00 0.00 92 1005.0
20260506072802 9 220 0.0 0.0 0.00 0.00 0.00 92 1005.1
20260506072701 9 220 0.0 0.0 0.00 0.00 0.00 92 1005.1
20260506072602 9 225 0.0 0.0 0.00 0.00 0.00 92 1005.0
20260506072501 9 225 0.0 0.0 0.00 0.00 0.00 92 1005.1
20260506072402 9 225 0.0 0.0 0.00 0.00 0.00 92 1005.0
20260506072305 9 225 0.0 0.0 0.00 0.00 0.00 92 1005.1
20260506072201 9 225 0.0 0.0 0.00 0.00 0.00 92 1005.1
20260506072003 9 215 0.0 0.0 0.00 0.00 0.00 92 1005.1
20260506071903 12 227 9.7 0.0 0.00 0.00 0.00 88 1008.2
20260505164301 12 227 9.7 0.0 0.00 0.00 0.00 88 1008.2
20260505164202 12 220 6.4 0.0 0.00 0.00 0.00 88 1008.2
20260505164101 12 220 6.4 0.0 0.00 0.00 0.00 88 1008.2
20260505164002 12 222 9.7 0.0 0.00 0.00 0.00 87 1008.2
20260505163901 12 222 9.7 0.0 0.00 0.00 0.00 87 1008.2
20260505163802 12 212 9.7 0.0 0.00 0.00 0.00 87 1008.3
20260505163702 12 212 9.7 0.0 0.00 0.00 0.00 87 1008.3
20260505163601 12 212 9.7 0.0 0.00 0.00 0.00 87 1008.3
20260505163502 12 212 9.7 0.0 0.00 0.00 0.00 87 1008.3
20260505163402 12 212 9.7 0.0 0.00 0.00 0.00 87 1008.3
20260505163302 12 212 9.7 0.0 0.00 0.00 0.00 87 1008.3
20260505163201 12 212 9.7 0.0 0.00 0.00 0.00 87 1008.3
20260505163102 12 217 9.7 0.0 0.00 0.00 0.00 88 1008.3
20260505163001 12 217 9.7 0.0 0.00 0.00 0.00 88 1008.3
20260505162902 12 217 9.7 0.0 0.00 0.00 0.00 88 1008.4
20260505162802 12 212 8.0 0.0 0.00 0.00 0.00 88 1008.4
20260505162702 12 212 8.0 0.0 0.00 0.00 0.00 88 1008.4
20260505162602 12 212 8.0 0.0 0.00 0.00 0.00 88 1008.4
20260505162502 12 220 9.7 0.0 0.00 0.00 0.00 87 1008.4
20260505162402 12 220 9.7 0.0 0.00 0.00 0.00 87 1008.4
20260505162305 12 220 9.7 0.0 0.00 0.00 0.00 87 1008.4
20260505162202 12 222 12.9 0.0 0.00 0.00 0.00 87 1008.4
20260505162102 12 222 12.9 0.0 0.00 0.00 0.00 87 1008.4
20260505162002 12 222 12.9 0.0 0.00 0.00 0.00 87 1008.5
20260505161902 12 232 9.7 0.0 0.00 0.00 0.00 87 1008.4
20260505161802 12 232 9.7 0.0 0.00 0.00 0.00 87 1008.4
20260505161702 12 232 11.3 0.0 0.00 0.00 0.00 87 1008.4
20260505161602 12 232 11.3 0.0 0.00 0.00 0.00 87 1008.4
20260505161502 12 232 11.3 0.0 0.00 0.00 0.00 87 1008.5
20260505161402 12 232 11.3 0.0 0.00 0.00 0.00 87 1008.4
20260505161301 12 232 11.3 0.0 0.00 0.00 0.00 87 1008.4
20260505161202 12 215 8.0 0.0 0.00 0.00 0.00 87 1008.5
20260505161101 12 215 8.0 0.0 0.00 0.00 0.00 87 1008.4
20260505161005 12 215 8.0 0.0 0.00 0.00 0.00 87 1008.4
20260505160901 12 212 8.0 0.0 0.00 0.00 0.00 87 1008.4
20260505160802 12 212 8.0 0.0 0.00 0.00 0.00 87 1008.4
20260505160701 12 215 6.4 0.0 0.00 0.00 0.00 87 1008.4
20260505160602 12 215 6.4 0.0 0.00 0.00 0.00 87 1008.4
20260505160502 12 215 6.4 0.0 0.00 0.00 0.00 87 1008.4
20260505160402 12 215 9.7 0.0 0.00 0.00 0.00 88 1008.3
20260505160302 12 215 9.7 0.0 0.00 0.00 0.00 88 1008.4
20260505160202 12 222 6.4 0.0 0.00 0.00 0.00 88 1008.4
20260505153302 12 215 9.7 0.0 0.00 0.00 0.00 89 1008.5
20260505153202 12 217 12.9 0.0 0.00 0.00 0.00 89 1008.5
20260505153102 12 217 12.9 0.0 0.00 0.00 0.00 89 1008.6
20260505153002 12 217 12.9 0.0 0.00 0.00 0.00 89 1008.6
20260505152902 12 207 9.7 0.0 0.00 0.00 0.00 89 1008.6
20260505152801 12 207 9.7 0.0 0.00 0.00 0.00 89 1008.5
20260505152702 12 207 9.7 0.0 0.00 0.00 0.00 89 1008.6
20260505152601 12 222 9.7 0.0 0.00 0.00 0.00 89 1008.6
20260505152502 12 222 9.7 0.0 0.00 0.00 0.00 89 1008.6
20260505152402 12 222 9.7 0.0 0.00 0.00 0.00 89 1008.6
20260505152305 12 225 8.0 0.0 0.00 0.00 0.00 89 1008.5
20260505152202 12 225 8.0 0.0 0.00 0.00 0.00 89 1008.6
20260505152101 12 225 6.4 0.0 0.00 0.00 0.00 89 1008.6
20260505152002 12 225 6.4 0.0 0.00 0.00 0.00 89 1008.6
20260505151901 12 225 6.4 0.0 0.00 0.00 0.00 89 1008.5
20260505151802 12 225 6.4 0.0 0.00 0.00 0.00 89 1008.5
20260505151702 12 225 6.4 0.0 0.00 0.00 0.00 89 1008.6
20260505151602 12 222 9.7 0.0 0.00 0.00 0.00 89 1008.6
20260505151502 12 220 20.9 0.0 0.00 0.00 0.00 89 1008.6
20260505151402 12 217 8.0 0.0 0.00 0.00 0.00 89 1008.6
20260505151302 12 222 9.7 0.0 0.00 0.00 0.00 89 1008.6
20260505151201 12 222 9.7 0.0 0.00 0.00 0.00 89 1008.6
20260505151102 12 222 9.7 0.0 0.00 0.00 0.00 89 1008.6
20260505151001 12 222 9.7 0.0 0.00 0.00 0.00 89 1008.6
20260505150902 12 225 11.3 0.0 0.00 0.00 0.00 89 1008.6
20260505150801 12 225 11.3 0.0 0.00 0.00 0.00 89 1008.6
20260505150702 12 225 11.3 0.0 0.00 0.00 0.00 89 1008.6
20260505150602 12 215 9.7 0.0 0.00 0.00 0.00 89 1008.7
20260505150502 12 215 9.7 0.0 0.00 0.00 0.00 89 1008.7
20260505150402 12 215 9.7 0.0 0.00 0.00 0.00 89 1008.8
20260505150301 12 230 4.8 0.0 0.00 0.00 0.00 88 1008.8
20260505150202 12 230 4.8 0.0 0.00 0.00 0.00 88 1008.7
20260505140601 12 220 4.8 0.0 0.00 0.00 0.00 86 1009.2
20260505140502 12 220 4.8 0.0 0.00 0.00 0.00 86 1009.2
20260505140401 12 220 4.8 0.0 0.00 0.00 0.00 86 1009.2
20260505140302 12 220 4.8 0.0 0.00 0.00 0.00 86 1009.2
20260505140201 12 220 4.8 0.0 0.00 0.00 0.00 86 1009.2
20260505130301 14 220 6.4 0.0 0.00 0.00 0.00 80 1009.5
20260505130202 14 220 6.4 0.0 0.00 0.00 0.00 80 1009.4
20260505125002 15 215 11.3 0.0 0.00 0.00 0.00 80 1009.5
20260505124901 15 205 6.4 0.0 0.00 0.00 0.00 80 1009.5
20260505124802 15 205 6.4 0.0 0.00 0.00 0.00 80 1009.5
20260505124701 15 205 6.4 0.0 0.00 0.00 0.00 80 1009.5
20260505124602 15 220 11.3 0.0 0.00 0.00 0.00 79 1009.5
20260505124501 15 220 11.3 0.0 0.00 0.00 0.00 79 1009.5
20260505124402 15 227 8.0 0.0 0.00 0.00 0.00 79 1009.5
20260505124302 15 227 8.0 0.0 0.00 0.00 0.00 79 1009.5
20260505124201 15 227 8.0 0.0 0.00 0.00 0.00 79 1009.5
20260505124102 15 165 6.4 0.0 0.00 0.00 0.00 79 1009.6
20260505124001 15 165 6.4 0.0 0.00 0.00 0.00 79 1009.6
20260505123902 15 152 8.0 0.0 0.00 0.00 0.00 78 1009.5
20260505123801 15 152 8.0 0.0 0.00 0.00 0.00 78 1009.6
20260505123702 15 152 8.0 0.0 0.00 0.00 0.00 78 1009.6
20260505123602 15 130 6.4 0.0 0.00 0.00 0.00 77 1009.6
20260505123501 15 130 6.4 0.0 0.00 0.00 0.00 77 1009.6
20260505123402 16 140 9.7 0.0 0.00 0.00 0.00 76 1009.6
20260505123301 16 140 9.7 0.0 0.00 0.00 0.00 76 1009.6
20260505123202 16 140 9.7 0.0 0.00 0.00 0.00 76 1009.6
20260505123101 16 122 9.7 0.0 0.00 0.00 0.00 72 1009.6
20260505123002 16 122 9.7 0.0 0.00 0.00 0.00 72 1009.5
20260505122902 16 122 9.7 0.0 0.00 0.00 0.00 72 1009.5
20260505122802 16 85 0.0 0.0 0.00 0.00 0.00 72 1009.5
20260505122702 16 85 0.0 0.0 0.00 0.00 0.00 72 1009.6
20260505122601 16 52 0.0 0.0 0.00 0.00 0.00 72 1009.6
20260505122502 16 52 0.0 0.0 0.00 0.00 0.00 72 1009.5
20260505122401 16 10 0.0 0.0 0.00 0.00 0.00 71 1009.6
20260505122305 16 10 0.0 0.0 0.00 0.00 0.00 71 1009.6
20260505122201 16 10 0.0 0.0 0.00 0.00 0.00 71 1009.6
20260505122102 16 145 0.0 0.0 0.00 0.00 0.00 72 1009.6
20260505122002 16 145 0.0 0.0 0.00 0.00 0.00 72 1009.6
20260505121901 16 145 0.0 0.0 0.00 0.00 0.00 72 1009.6
20260505121802 16 145 0.0 0.0 0.00 0.00 0.00 72 1009.6
20260505121701 16 145 0.0 0.0 0.00 0.00 0.00 72 1009.6
20260505121602 16 145 0.0 0.0 0.00 0.00 0.00 72 1009.6
20260505121501 16 195 0.0 0.0 0.00 0.00 0.00 71 1009.6
20260505121402 16 195 0.0 0.0 0.00 0.00 0.00 71 1009.6
20260505121301 16 212 0.0 0.0 0.00 0.00 0.00 71 1009.6
20260505121202 16 212 0.0 0.0 0.00 0.00 0.00 71 1009.6
20260505121102 16 75 0.0 0.0 0.00 0.00 0.00 69 1009.6
20260505121002 16 75 0.0 0.0 0.00 0.00 0.00 69 1009.6
20260505120901 16 75 0.0 0.0 0.00 0.00 0.00 69 1009.6
20260505120802 16 75 0.0 0.0 0.00 0.00 0.00 69 1009.6
20260505120702 16 75 0.0 0.0 0.00 0.00 0.00 69 1009.6
20260505120602 16 75 0.0 0.0 0.00 0.00 0.00 69 1009.6
20260505120502 16 217 0.0 0.0 0.00 0.00 0.00 70 1009.6
20260505120401 16 217 0.0 0.0 0.00 0.00 0.00 70 1009.6
20260505120302 16 225 0.0 0.0 0.00 0.00 0.00 70 1009.6
20260505120201 16 225 0.0 0.0 0.00 0.00 0.00 70 1009.6
20260505120001 16 265 4.8 0.0 0.00 0.00 0.00 70 1009.6
20260505115902 16 265 4.8 0.0 0.00 0.00 0.00 70 1009.6
20260505115802 16 20 0.0 0.0 0.00 0.00 0.00 70 1009.7
20260505115702 16 20 0.0 0.0 0.00 0.00 0.00 70 1009.6
20260505115602 16 20 0.0 0.0 0.00 0.00 0.00 70 1009.6
20260505115501 16 20 0.0 0.0 0.00 0.00 0.00 70 1009.7
20260505115402 16 20 0.0 0.0 0.00 0.00 0.00 70 1009.7
20260505115304 16 12 0.0 0.0 0.00 0.00 0.00 70 1009.6
20260505115202 16 12 0.0 0.0 0.00 0.00 0.00 70 1009.7
20260505115102 16 12 0.0 0.0 0.00 0.00 0.00 70 1009.6
20260505115002 17 330 6.4 0.0 0.00 0.00 0.00 70 1009.7
20260505114902 17 330 6.4 0.0 0.00 0.00 0.00 70 1009.7
20260505114801 17 310 3.2 0.0 0.00 0.00 0.00 69 1009.7
20260505114702 17 310 3.2 0.0 0.00 0.00 0.00 69 1009.7
20260505114601 17 310 3.2 0.0 0.00 0.00 0.00 69 1009.7
20260505114502 17 260 4.8 0.0 0.00 0.00 0.00 69 1009.7
20260505114401 17 260 4.8 0.0 0.00 0.00 0.00 69 1009.7
20260505114302 17 260 4.8 0.0 0.00 0.00 0.00 69 1009.7
20260505114202 17 225 4.8 0.0 0.00 0.00 0.00 69 1009.7
20260505114102 17 225 4.8 0.0 0.00 0.00 0.00 69 1009.8
20260505114002 17 90 0.0 0.0 0.00 0.00 0.00 68 1009.8
20260505113901 17 90 0.0 0.0 0.00 0.00 0.00 68 1009.7
20260505113802 17 90 0.0 0.0 0.00 0.00 0.00 68 1009.7
20260505113701 17 90 0.0 0.0 0.00 0.00 0.00 68 1009.8
20260505113602 17 90 0.0 0.0 0.00 0.00 0.00 68 1009.8
20260505113502 17 105 0.0 0.0 0.00 0.00 0.00 69 1009.8
20260505113402 17 105 0.0 0.0 0.00 0.00 0.00 69 1009.8
20260505113302 17 105 0.0 0.0 0.00 0.00 0.00 69 1009.8
20260505113201 17 115 0.0 0.0 0.00 0.00 0.00 72 1009.8
20260505113102 17 115 0.0 0.0 0.00 0.00 0.00 72 1009.8
20260505113002 17 115 0.0 0.0 0.00 0.00 0.00 72 1009.8
20260505112902 17 115 0.0 0.0 0.00 0.00 0.00 72 1009.8
20260505112801 17 115 0.0 0.0 0.00 0.00 0.00 72 1009.8
20260505112702 17 15 6.4 0.0 0.00 0.00 0.00 72 1009.9
20260505112602 17 15 6.4 0.0 0.00 0.00 0.00 72 1009.8
20260505112501 17 15 6.4 0.0 0.00 0.00 0.00 72 1009.8
20260505112402 17 15 6.4 0.0 0.00 0.00 0.00 72 1009.8
20260505112301 17 15 6.4 0.0 0.00 0.00 0.00 72 1009.8
20260505112202 17 255 0.0 0.0 0.00 0.00 0.00 73 1009.8
20260505112101 17 255 0.0 0.0 0.00 0.00 0.00 73 1009.9
20260505112002 17 255 0.0 0.0 0.00 0.00 0.00 73 1009.9
20260505111901 17 235 0.0 0.0 0.00 0.00 0.00 72 1009.9
20260505111801 17 235 0.0 0.0 0.00 0.00 0.00 72 1009.9
20260505111702 17 255 0.0 0.0 0.00 0.00 0.00 72 1009.9
20260505111601 17 255 0.0 0.0 0.00 0.00 0.00 72 1009.9
20260505111502 16 250 4.8 0.0 0.00 0.00 0.00 75 1009.9
20260505111401 16 250 4.8 0.0 0.00 0.00 0.00 75 1009.9
20260505111302 16 250 4.8 0.0 0.00 0.00 0.00 75 1010.0
20260505111202 16 230 4.8 0.0 0.00 0.00 0.00 75 1009.9
20260505111102 16 230 4.8 0.0 0.00 0.00 0.00 75 1010.0
20260505111002 16 230 4.8 0.0 0.00 0.00 0.00 75 1010.0
20260505110902 16 187 0.0 0.0 0.00 0.00 0.00 73 1010.0
20260505110802 16 187 0.0 0.0 0.00 0.00 0.00 73 1010.1
20260505110701 16 160 0.0 0.0 0.00 0.00 0.00 74 1010.1
20260505110602 16 160 0.0 0.0 0.00 0.00 0.00 74 1010.1
20260505110501 16 65 8.0 0.0 0.00 0.00 0.00 77 1010.1
20260505110402 16 65 8.0 0.0 0.00 0.00 0.00 77 1010.1
20260505110302 16 65 8.0 0.0 0.00 0.00 0.00 77 1010.1
20260505110202 16 65 8.0 0.0 0.00 0.00 0.00 77 1010.1
20260505102201 14 147 0.0 0.0 0.00 0.00 0.00 78 1010.5
20260505102102 14 147 0.0 0.0 0.00 0.00 0.00 78 1010.5
20260505102001 14 147 0.0 0.0 0.00 0.00 0.00 78 1010.5
20260505101902 14 120 0.0 0.0 0.00 0.00 0.00 78 1010.5
20260505101801 14 120 0.0 0.0 0.00 0.00 0.00 78 1010.4
20260505101702 14 82 0.0 0.0 0.00 0.00 0.00 78 1010.4
20260505101602 14 82 0.0 0.0 0.00 0.00 0.00 78 1010.4
20260505101501 14 82 0.0 0.0 0.00 0.00 0.00 78 1010.5
20260505101402 14 80 6.4 0.0 0.00 0.00 0.00 77 1010.5
20260505101301 14 80 6.4 0.0 0.00 0.00 0.00 77 1010.5
20260505101202 14 80 6.4 0.0 0.00 0.00 0.00 77 1010.5
20260505101102 14 72 8.0 0.0 0.00 0.00 0.00 77 1010.5
20260505101001 14 72 8.0 0.0 0.00 0.00 0.00 77 1010.5
20260505100902 15 85 0.0 0.0 0.00 0.00 0.00 77 1010.5
20260505100801 15 85 0.0 0.0 0.00 0.00 0.00 77 1010.5
20260505100702 15 85 0.0 0.0 0.00 0.00 0.00 77 1010.5
20260505100601 15 95 0.0 0.0 0.00 0.00 0.00 78 1010.5
20260505100502 15 95 0.0 0.0 0.00 0.00 0.00 78 1010.5
20260505100402 15 95 0.0 0.0 0.00 0.00 0.00 78 1010.5
20260505100301 15 147 0.0 0.0 0.00 0.00 0.00 78 1010.4
20260505100202 15 147 0.0 0.0 0.00 0.00 0.00 78 1010.5
20260505100101 15 147 0.0 0.0 0.00 0.00 0.00 78 1010.5
20260505100002 15 107 0.0 0.0 0.00 0.00 0.00 76 1010.5
20260505095901 15 107 0.0 0.0 0.00 0.00 0.00 76 1010.5
20260505095802 15 107 0.0 0.0 0.00 0.00 0.00 76 1010.4
20260505095702 15 107 0.0 0.0 0.00 0.00 0.00 76 1010.5
20260505095602 15 107 0.0 0.0 0.00 0.00 0.00 76 1010.5
20260505095502 15 107 0.0 0.0 0.00 0.00 0.00 76 1010.5
20260505095401 15 107 0.0 0.0 0.00 0.00 0.00 76 1010.5
20260505095304 15 90 0.0 0.0 0.00 0.00 0.00 77 1010.4
20260505095201 15 90 0.0 0.0 0.00 0.00 0.00 77 1010.4
20260505095102 15 85 0.0 0.0 0.00 0.00 0.00 76 1010.5
20260505095001 15 85 0.0 0.0 0.00 0.00 0.00 76 1010.4
20260505094901 15 107 0.0 0.0 0.00 0.00 0.00 77 1010.4
20260505094802 15 107 0.0 0.0 0.00 0.00 0.00 77 1010.4
20260505094701 15 107 0.0 0.0 0.00 0.00 0.00 77 1010.4
20260505094602 15 140 0.0 0.0 0.00 0.00 0.00 76 1010.4
20260505094501 15 140 0.0 0.0 0.00 0.00 0.00 76 1010.5
20260505094402 15 190 0.0 0.0 0.00 0.00 0.00 76 1010.4
20260505094302 15 190 0.0 0.0 0.00 0.00 0.00 76 1010.5
20260505094201 15 190 0.0 0.0 0.00 0.00 0.00 76 1010.5
20260505094102 15 12 0.0 0.0 0.00 0.00 0.00 76 1010.5
20260505094001 15 12 0.0 0.0 0.00 0.00 0.00 76 1010.5
20260505093902 15 12 0.0 0.0 0.00 0.00 0.00 76 1010.5
20260505093801 15 12 0.0 0.0 0.00 0.00 0.00 76 1010.5
20260505093702 15 12 0.0 0.0 0.00 0.00 0.00 76 1010.5
20260505093501 15 325 0.0 0.0 0.00 0.00 0.00 77 1010.5
20260505093402 15 250 0.0 0.0 0.00 0.00 0.00 78 1010.5
20260505093301 15 250 0.0 0.0 0.00 0.00 0.00 78 1010.5
20260505093202 15 250 0.0 0.0 0.00 0.00 0.00 78 1010.5
20260505093101 14 175 0.0 0.0 0.00 0.00 0.00 78 1010.5
20260505093002 14 175 0.0 0.0 0.00 0.00 0.00 78 1010.5
20260505092902 14 175 0.0 0.0 0.00 0.00 0.00 78 1010.5
20260505092802 14 217 0.0 0.0 0.00 0.00 0.00 77 1010.5
20260505092702 14 217 0.0 0.0 0.00 0.00 0.00 77 1010.5
20260505092601 14 217 0.0 0.0 0.00 0.00 0.00 78 1010.5
20260505092502 14 217 0.0 0.0 0.00 0.00 0.00 78 1010.5
20260505092401 14 217 0.0 0.0 0.00 0.00 0.00 78 1010.5
20260505092304 14 217 0.0 0.0 0.00 0.00 0.00 78 1010.5
20260505092201 14 217 0.0 0.0 0.00 0.00 0.00 78 1010.5
20260505092102 14 210 0.0 0.0 0.00 0.00 0.00 78 1010.5
20260505092002 14 210 0.0 0.0 0.00 0.00 0.00 78 1010.5
20260505091901 14 247 0.0 0.0 0.00 0.00 0.00 78 1010.5
20260505091802 14 247 0.0 0.0 0.00 0.00 0.00 78 1010.5
20260505091701 14 247 0.0 0.0 0.00 0.00 0.00 78 1010.5
20260505091602 14 247 0.0 0.0 0.00 0.00 0.00 78 1010.5
20260505091502 14 247 0.0 0.0 0.00 0.00 0.00 78 1010.5
20260505091402 14 247 0.0 0.0 0.00 0.00 0.00 78 1010.5
20260505091301 14 247 0.0 0.0 0.00 0.00 0.00 78 1010.5
20260505091202 14 217 0.0 0.0 0.00 0.00 0.00 78 1010.5
20260505091101 14 217 0.0 0.0 0.00 0.00 0.00 78 1010.5
20260505091002 14 217 0.0 0.0 0.00 0.00 0.00 78 1010.5
20260505090902 14 250 0.0 0.0 0.00 0.00 0.00 79 1010.5
20260505090802 14 250 0.0 0.0 0.00 0.00 0.00 79 1010.5
20260505090701 14 250 0.0 0.0 0.00 0.00 0.00 79 1010.5
20260505090602 14 250 0.0 0.0 0.00 0.00 0.00 79 1010.5
20260505090502 14 250 0.0 0.0 0.00 0.00 0.00 79 1010.5
20260505090402 14 250 0.0 0.0 0.00 0.00 0.00 79 1010.5
20260505090302 14 250 0.0 0.0 0.00 0.00 0.00 79 1010.5
20260505090201 14 225 0.0 0.0 0.00 0.00 0.00 80 1010.5